McCook, NE

7:01 AM CST on February 14, 2016 (GMT -0600)
McCook Municipal

Weather History for KMCK - March, 2014

Change the Weather History Date:

Sunday, March 9, 2014

  Actual Average Record
Temperature  
Mean Temperature 57 °F 37 °F  
Max Temperature 79 °F 52 °F 85 °F (1989)
Min Temperature 34 °F 23 °F -8 °F (1915)
Degree Days  
Heating Degree Days 8    
Growing Degree Days 6 (Base 50)    
Moisture  
Dew Point 25 °F    
Average Humidity 42    
Maximum Humidity 73    
Minimum Humidity 8    
Precipitation  
Precipitation 0.00 in 0.04 in 0.56 in (1992)
Month to date precipitation T 0.33  
Year to date precipitation 0.49 1.46  
Sea Level Pressure  
Sea Level Pressure 30.03 in    
Wind  
Wind Speed 13 mph (West)    
Max Wind Speed 22 mph    
Max Gust Speed 28 mph    
Visibility 10 miles    
Events      
T = Trace of Precipitation, MM = Missing Value Source: NWS Daily Summary

Daily Weather History Graph

Daily Weather History Graph

Search for Another Location

Airport or City:

Trip Planner

Search our weather history database for the weather conditions in past years. The results will help you decide how hot, cold, wet, or windy it might be!

Date:

Astronomy

Mar. 09, 2014 Rise Set
Actual Time 8:03 AM CDT 7:42 PM CDT
Civil Twilight 7:36 AM CDT 8:09 PM CDT
Nautical Twilight 7:04 AM CDT 8:41 PM CDT
Astronomical Twilight 6:33 AM CDT 9:13 PM CDT
Moon 1:36 PM CDT (3/9) 3:30 AM CDT (3/9)
Length of Visible Light 12h 33m
Length of Day
11h 39m
First Quarter, 61% of the Moon is Illuminated
Mar 9
First Quarter
Mar 16
Full
Mar 23
Last Quarter
Mar 30
New
Apr 7
First Quarter

Hourly Weather History & Observations

Time (CDT) Temp. Windchill Dew Point Humidity Pressure Visibility Wind Dir Wind Speed Gust Speed Precip Events Conditions
12:53 AM 37.0 °F 29.3 °F 27.0 °F 67% 30.26 in 10.0 mi WSW 11.5 mph - N/A   Clear
1:53 AM 36.0 °F 27.5 °F 27.0 °F 70% 30.25 in 10.0 mi WSW 12.7 mph - N/A   Clear
3:53 AM 35.1 °F 26.4 °F 26.1 °F 70% 30.20 in 10.0 mi WSW 12.7 mph - N/A   Clear
4:53 AM 37.0 °F 28.5 °F 27.0 °F 67% 30.17 in 10.0 mi WSW 13.8 mph - N/A   Clear
5:53 AM 36.0 °F 26.7 °F 27.0 °F 70% 30.15 in 10.0 mi SW 15.0 mph - N/A   Clear
6:53 AM 35.1 °F 25.9 °F 27.0 °F 72% 30.14 in 10.0 mi WSW 13.8 mph - N/A   Clear
7:53 AM 34.0 °F 24.6 °F 26.1 °F 73% 30.12 in 10.0 mi WSW 13.8 mph - N/A   Clear
8:53 AM 37.9 °F 29.6 °F 27.0 °F 65% 30.14 in 10.0 mi WSW 13.8 mph - N/A   Clear
9:53 AM 39.0 °F 34.8 °F 28.0 °F 65% 30.14 in 10.0 mi West 5.8 mph - N/A   Clear
10:53 AM 46.0 °F 41.0 °F 30.0 °F 54% 30.13 in 10.0 mi West 10.4 mph - N/A   Clear
11:53 AM 57.0 °F - 28.9 °F 34% 30.08 in 10.0 mi WSW 12.7 mph - N/A   Clear
12:53 PM 64.9 °F - 28.0 °F 25% 30.03 in 10.0 mi West 10.4 mph - N/A   Clear
1:53 PM 72.0 °F - 24.1 °F 17% 29.98 in 10.0 mi West 9.2 mph - N/A   Clear
2:53 PM 75.9 °F - 21.0 °F 13% 29.94 in 10.0 mi WNW 18.4 mph 23.0 mph N/A   Clear
3:53 PM 78.1 °F - 14.0 °F 9% 29.89 in 10.0 mi WNW 21.9 mph 26.5 mph N/A   Clear
4:53 PM 79.0 °F - 12.0 °F 8% 29.87 in 10.0 mi WNW 19.6 mph 27.6 mph N/A   Clear
5:53 PM 77.0 °F - 16.0 °F 10% 29.86 in 10.0 mi WNW 13.8 mph 24.2 mph N/A   Clear
6:53 PM 70.0 °F - 19.9 °F 15% 29.88 in 10.0 mi NW 10.4 mph - N/A   Clear
7:53 PM 64.9 °F - 19.9 °F 18% 29.90 in 10.0 mi West 8.1 mph - N/A   Clear
8:53 PM 59.0 °F - 24.1 °F 26% 29.91 in 10.0 mi WNW 9.2 mph - N/A   Clear
9:53 PM 57.0 °F - 24.1 °F 28% 29.93 in 10.0 mi West 10.4 mph - N/A   Clear
10:53 PM 54.0 °F - 27.0 °F 35% 29.93 in 10.0 mi WNW 10.4 mph - N/A   Clear
11:53 PM 53.1 °F - 28.9 °F 40% 29.91 in 10.0 mi WNW 15.0 mph - N/A   Clear
12:53 AM 50.0 °F - 30.0 °F 46% 29.89 in 10.0 mi West 8.1 mph - N/A   Clear